PERSEUS-M1

Last updated on Mon Sep 21 2026 00:03:44 GMT+0000 (Coordinated Universal Time)

1 40039U 14033AF 26263.43083706 .00000643 00000+0 62877-4 0 9993 2 40039 97.9721 209.1752 0011286 348.6640 11.4324 14.95889517664871
UTC large
Height (km)
Speed (km/s)
/
Latitude / Longitude
Inclination (degrees)
Orbital Period (minutes)
Azimuth
Elevation
Range (km)
Doppler Factor

Next 0 passes for location: London (51.5072 / 0.1276)

No passes found over London.
PERSEUS-M1